Home > Weather > Knarrevik/Straume > Past weeks

Flag for Norway Weather for the Past 2 Weeks in Knarrevik/Straume, Norway

Now
29 °F

Clear.


Feels Like: 25 °F
Forecast: 21 / 31 °F
Wind: 3 mph from East

Location: Bergen / Flesland

Current Time: Feb 12, 2016 at 8:25:45 PM

Latest Report: Feb 12, 2016 at 7:00 PM


Visibility: 31 mi

Pressure: 29.62 "Hg

Humidity: 67%

Dew point: 19 °F

Location of Knarrevik/StraumeLocation

Historic Weather in Knarrevik/Straume — Graph

°F

Knarrevik/Straume Temperature Yesterday

Maximum temperature yesterday: 42 °F (at 2:00 PM)
Minimum temperature yesterday: 29 °F (at 2:00 AM)
Average temperature yesterday: 33 °F

High & Low Weather Summary for the Past Weeks

 TemperatureHumidityPressure
High47 °F (Jan 29, 1:00 PM)99% (Feb 4, 7:00 AM)30.00 "Hg (Feb 4, 7:00 AM)
Low27 °F (Feb 12, 9:00 AM)39% (Feb 11, 9:00 PM)28.56 "Hg (Feb 8, 9:00 AM)
Average38 °F85%29.22 "Hg
* Reported Jan 28 7:00 PM — Feb 12 7:00 PM, Knarrevik/Straume, Weather by CustomWeather, © 2016

Note: Actual official high and low records may vary slightly from our data, if they occured in-between our weather recording intervals... More about our weather records

Advertising

Knarrevik/Straume Weather History for the Previous 24 Hours

 ConditionsComfort  
Time TempWeatherWind HumidityBarometerVisibility
7:00 PM
Fri, Feb 12
29 °FClear.3 mph67%29.62 "Hg31 mi
6:00 PM30 °FClear.2 mph65%29.64 "Hg31 mi
5:00 PM33 °FSunny.3 mph54%29.65 "Hg31 mi
4:00 PM34 °FSunny.3 mph51%29.66 "Hg25 mi
3:00 PM34 °FSunny.3 mph49%29.68 "Hg25 mi
2:00 PM34 °FSunny.5 mph44%29.69 "Hg25 mi
1:00 PM33 °FSunny.5 mph46%29.70 "Hg22 mi
12:00 PM32 °FSunny.5 mph48%29.72 "Hg25 mi
11:00 AM31 °FSunny.2 mph56%29.73 "Hg22 mi
10:00 AM29 °FSunny.2 mph55%29.74 "Hg25 mi
9:00 AM27 °FSunny.3 mph63%29.74 "Hg31 mi
8:00 AM28 °FClear.3 mph56%29.74 "Hg31 mi
7:00 AM27 °FClear.3 mph60%29.74 "Hg31 mi
5:00 AM29 °FClear.6 mph53%29.74 "Hg31 mi
4:00 AM29 °FClear.5 mph53%29.74 "Hg31 mi
9:00 PM
Thu, Feb 11
33 °FClear.6 mph39%29.68 "Hg31 mi
8:00 PM32 °FClear.5 mph55%29.67 "Hg31 mi
Weather by CustomWeather, © 2016

See weather overviewHow to use our weather pages